User: anonymous   Login
Location: Unspecified
(0.0000°N, 0.0000°E)
Time: 04:07:47
(UTC+00:00)
Language:

Oscar 16 - Orbit

View from above orbital plane
View from above orbital plane
View from above satellite
View from above satellite

Ground track
Ground track

The orbit data is extracted from the following two-line orbital elements,

1 20439U 90005D   24170.75213493  .00000228  00000-0  99670-4 0  9997
2 20439  98.8989 175.9208 0010231 201.8248 334.7732 14.33392876797553
Epoch (UTC): 18 June 2024 18:03:04
Eccentricity: 0.0010231
inclination: 98.8989°
perigee height: 773 km
apogee height: 788 km
right ascension of ascending node: 175.9208°
argument of perigee: 201.8248°
revolutions per day: 14.33392876
mean anomaly at epoch: 334.7732°
orbit number at epoch: 79755

The dashed part of the orbit path shows where the satellite is in the earth's shadow,  

DLR